Location: Cortos
(40.7190°N, 4.5893°W)
Time: 04:29:13
(UTC+00:00)

Cosmos 1538 Rocket - Pass Details

Date: 05 July 2020
Orbit: 753 x 791 km, 74.0° (Epoch: 11 August)

Event Time Altitude Azimuth Distance (km) Brightness Sun altitude
Exits shadow 22:15:20 15° 210° (SSW) 2,028 5.9 -20.0°
Maximum altitude 22:19:48 67° 291° (WNW) 853 4.3 -20.4°
Drops below altitude 10° 22:25:07 10° 14° (NNE) 2,345 7.1 -20.9°
Sets 22:27:31 0° 17° (NNE) 3,271 7.9 -21.2°
